TimeEDT,TemperatureF,Dew PointF,Humidity,Sea Level PressureIn,VisibilityMPH,Wind Direction,Wind SpeedMPH,Gust SpeedMPH,PrecipitationIn,Events,Conditions,WindDirDegrees,DateUTC
12:11 AM,71.6,69.8,94,30.00,2.5,Calm,Calm,-,N/A,,Mostly Cloudy,0,2013-09-12 04:11:00
12:23 AM,69.8,68.0,94,29.99,2.0,ESE,3.5,-,N/A,,Scattered Clouds,110,2013-09-12 04:23:00
12:31 AM,69.8,68.0,94,29.98,2.0,Calm,Calm,-,N/A,,Mostly Cloudy,0,2013-09-12 04:31:00
12:54 AM,70.0,69.1,97,29.97,2.5,Calm,Calm,-,N/A,,Overcast,0,2013-09-12 04:54:00
1:20 AM,69.8,69.8,100,29.98,1.0,Calm,Calm,-,N/A,,Overcast,0,2013-09-12 05:20:00
1:32 AM,69.8,69.8,100,29.98,0.5,ESE,3.5,-,N/A,Fog,Fog,110,2013-09-12 05:32:00
1:41 AM,69.8,69.8,100,29.98,0.2,Calm,Calm,-,N/A,Fog,Fog,0,2013-09-12 05:41:00
1:54 AM,70.0,69.1,97,29.96,0.2,Calm,Calm,-,N/A,Fog,Fog,0,2013-09-12 05:54:00
2:04 AM,69.8,69.8,100,29.97,0.5,ESE,3.5,-,N/A,Fog,Fog,110,2013-09-12 06:04:00
2:21 AM,69.8,69.8,100,29.97,1.0,Calm,Calm,-,N/A,,Overcast,0,2013-09-12 06:21:00
2:30 AM,69.8,69.8,100,29.96,0.8,Calm,Calm,-,N/A,,Mist,0,2013-09-12 06:30:00
2:54 AM,70.0,68.0,93,29.95,0.5,ENE,3.5,-,N/A,Fog,Fog,60,2013-09-12 06:54:00
3:04 AM,69.8,68.0,94,29.95,1.2,Calm,Calm,-,N/A,Thunderstorm,Overcast,0,2013-09-12 07:04:00
3:13 AM,69.8,69.8,100,29.95,0.2,East,3.5,-,N/A,Fog-Thunderstorm,Fog,100,2013-09-12 07:13:00
3:24 AM,69.8,69.8,100,29.95,0.5,ENE,3.5,-,N/A,Fog,Fog,60,2013-09-12 07:24:00
3:50 AM,69.8,69.8,100,29.95,0.2,Calm,Calm,-,N/A,Fog,Fog,0,2013-09-12 07:50:00
3:54 AM,70.0,69.1,97,29.94,0.2,ESE,3.5,-,N/A,Fog,Fog,110,2013-09-12 07:54:00
4:42 AM,69.8,69.8,100,29.94,0.5,East,4.6,-,N/A,Fog,Fog,100,2013-09-12 08:42:00
4:54 AM,69.1,68.0,96,29.93,0.5,Calm,Calm,-,N/A,Fog,Fog,0,2013-09-12 08:54:00
5:09 AM,69.8,68.0,94,29.93,1.2,East,3.5,-,N/A,,Overcast,90,2013-09-12 09:09:00
5:22 AM,69.8,68.0,94,29.93,2.0,East,4.6,-,N/A,,Overcast,100,2013-09-12 09:22:00
5:32 AM,69.8,68.0,94,29.93,1.0,East,4.6,-,N/A,,Overcast,90,2013-09-12 09:32:00
5:40 AM,69.8,68.0,94,29.93,0.5,East,3.5,-,N/A,Fog,Fog,90,2013-09-12 09:40:00
5:54 AM,69.1,68.0,96,29.93,1.2,Calm,Calm,-,N/A,,Overcast,0,2013-09-12 09:54:00
6:24 AM,69.8,68.0,94,29.93,2.5,East,3.5,-,N/A,,Overcast,90,2013-09-12 10:24:00
6:31 AM,69.8,68.0,94,29.93,3.0,ESE,4.6,-,N/A,,Overcast,110,2013-09-12 10:31:00
6:41 AM,69.8,68.0,94,29.93,2.5,East,4.6,-,N/A,,Overcast,90,2013-09-12 10:41:00
6:54 AM,69.1,68.0,96,29.92,2.5,East,5.8,-,N/A,,Overcast,80,2013-09-12 10:54:00
7:18 AM,69.8,68.0,94,29.94,1.8,Calm,Calm,-,N/A,,Overcast,0,2013-09-12 11:18:00
7:26 AM,69.8,68.0,94,29.94,2.5,Calm,Calm,-,N/A,,Overcast,0,2013-09-12 11:26:00
7:46 AM,69.8,68.0,94,29.92,1.5,ENE,4.6,-,N/A,,Overcast,70,2013-09-12 11:46:00
7:54 AM,69.1,68.0,96,29.91,1.0,East,4.6,-,N/A,,Overcast,80,2013-09-12 11:54:00
8:08 AM,69.8,68.0,94,29.92,0.5,East,4.6,-,N/A,Fog,Fog,90,2013-09-12 12:08:00
8:19 AM,69.8,68.0,94,29.91,0.2,East,4.6,-,N/A,Fog,Fog,100,2013-09-12 12:19:00
8:38 AM,69.8,68.0,94,29.90,0.8,East,3.5,-,N/A,,Mist,100,2013-09-12 12:38:00
8:47 AM,69.8,68.0,94,29.90,1.0,East,3.5,-,N/A,,Overcast,80,2013-09-12 12:47:00
8:54 AM,69.1,68.0,96,29.89,1.5,East,10.4,-,N/A,,Overcast,100,2013-09-12 12:54:00
9:04 AM,69.8,68.0,94,29.89,2.0,East,3.5,-,N/A,,Overcast,100,2013-09-12 13:04:00
9:22 AM,71.6,69.8,94,29.89,3.0,East,5.8,-,N/A,,Overcast,90,2013-09-12 13:22:00
9:54 AM,72.0,69.1,91,29.89,4.0,East,3.5,-,N/A,,Overcast,100,2013-09-12 13:54:00
10:10 AM,71.6,69.8,94,29.89,4.0,Variable,4.6,-,N/A,,Overcast,0,2013-09-12 14:10:00
10:54 AM,73.0,69.1,87,29.87,5.0,SE,3.5,-,N/A,,Overcast,140,2013-09-12 14:54:00
11:54 AM,73.9,70.0,87,29.85,5.0,East,5.8,-,N/A,,Overcast,90,2013-09-12 15:54:00
12:46 PM,75.2,69.8,83,29.84,5.0,East,4.6,-,N/A,,Haze,100,2013-09-12 16:46:00
12:54 PM,75.0,70.0,84,29.83,5.0,ESE,3.5,-,N/A,,Haze,110,2013-09-12 16:54:00
1:02 PM,75.2,69.8,83,29.84,5.0,East,4.6,-,N/A,,Haze,80,2013-09-12 17:02:00
1:54 PM,78.1,71.1,79,29.80,5.0,ESE,5.8,-,N/A,,Haze,110,2013-09-12 17:54:00
2:54 PM,81.0,70.0,69,29.74,6.0,Calm,Calm,-,N/A,,Haze,0,2013-09-12 18:54:00
3:08 PM,80.6,71.6,74,29.75,6.0,South,4.6,-,N/A,Thunderstorm,Haze,190,2013-09-12 19:08:00
3:17 PM,71.6,62.6,73,29.82,4.0,West,20.7,43.7,0.00,Rain-Thunderstorm,Light Thunderstorms and Rain,260,2013-09-12 19:17:00
3:19 PM,69.8,62.6,78,29.80,1.5,WSW,16.1,43.7,0.00,Rain-Thunderstorm,Heavy Thunderstorms and Rain,240,2013-09-12 19:19:00
3:31 PM,69.8,62.6,78,29.77,5.0,West,9.2,20.7,0.15,Rain-Thunderstorm,Light Thunderstorms and Rain,280,2013-09-12 19:31:00
3:54 PM,68.0,64.0,87,29.77,5.0,WNW,4.6,-,0.15,Thunderstorm,Partly Cloudy,290,2013-09-12 19:54:00
4:06 PM,69.8,64.4,83,29.77,10.0,NW,3.5,-,N/A,,Clear,320,2013-09-12 20:06:00
4:54 PM,69.1,64.9,87,29.75,10.0,Calm,Calm,-,N/A,,Partly Cloudy,0,2013-09-12 20:54:00
5:54 PM,70.0,64.9,84,29.75,10.0,Calm,Calm,-,N/A,,Clear,0,2013-09-12 21:54:00
6:54 PM,69.1,64.9,87,29.74,10.0,East,4.6,-,N/A,,Mostly Cloudy,90,2013-09-12 22:54:00
7:36 PM,68.0,66.2,94,29.75,1.8,NW,3.5,-,0.01,Rain,Heavy Rain,320,2013-09-12 23:36:00
7:50 PM,68.0,66.2,94,29.75,2.0,Calm,Calm,-,0.21,Rain,Heavy Rain,0,2013-09-12 23:50:00
7:54 PM,68.0,66.0,93,29.74,2.5,Calm,Calm,-,0.22,Rain,Rain,0,2013-09-12 23:54:00
7:58 PM,68.0,66.2,94,29.75,4.0,Calm,Calm,-,0.01,Rain,Light Rain,0,2013-09-12 23:58:00
8:09 PM,68.0,66.2,94,29.74,6.0,Calm,Calm,-,0.01,Rain,Light Rain,0,2013-09-13 00:09:00
8:19 PM,68.0,66.2,94,29.74,7.0,Calm,Calm,-,0.01,Rain,Light Rain,0,2013-09-13 00:19:00
8:54 PM,68.0,66.0,93,29.73,9.0,Calm,Calm,-,0.01,,Partly Cloudy,0,2013-09-13 00:54:00
9:54 PM,68.0,66.0,93,29.74,5.0,Calm,Calm,-,N/A,,Overcast,0,2013-09-13 01:54:00
10:11 PM,68.0,66.2,94,29.75,6.0,ESE,3.5,-,N/A,,Overcast,110,2013-09-13 02:11:00
10:39 PM,68.0,66.2,94,29.74,6.0,Calm,Calm,-,N/A,,Overcast,0,2013-09-13 02:39:00
10:46 PM,66.2,64.4,94,29.74,6.0,East,4.6,-,N/A,,Overcast,80,2013-09-13 02:46:00
10:54 PM,66.9,66.0,97,29.73,5.0,East,3.5,-,N/A,,Overcast,90,2013-09-13 02:54:00
11:09 PM,66.2,66.2,100,29.74,4.0,East,4.6,-,0.00,Rain,Light Rain,100,2013-09-13 03:09:00
11:19 PM,66.2,66.2,100,29.75,1.8,Calm,Calm,-,0.02,Rain,Heavy Rain,0,2013-09-13 03:19:00
11:35 PM,66.2,66.2,100,29.74,3.0,WSW,11.5,-,0.11,Rain,Rain,250,2013-09-13 03:35:00
11:54 PM,66.9,64.0,90,29.73,10.0,West,9.2,-,0.13,Rain,Light Rain,270,2013-09-13 03:54:00